Regional Weather Roundup
Issued by NWS

Home | Current Version | Previous Version | Text Only | Print | Product List | Glossary On
Versions: 1 2 3 4 5 6 7 8 9 10 11 12 13 14 15 16 17 18 19 20 21 22 23 24 25 26 27
000
ASUS45 KPSR 170410
RWRAZ

ARIZONA HOURLY REGIONAL WEATHER ROUNDUP
NATIONAL WEATHER SERVICE PHOENIX AZ
900 PM MST WED AUG 16 2017

NOTE: FAIR INDICATES FEW OR NO CLOUDS BELOW 12,000 FEET WITH NO
SIGNIFICANT WEATHER AND/OR OBSTRUCTIONS TO VISIBILITY.

AZZ001>003-036-170500-
NORTHWEST ARIZONA

CITY           SKY/WX    TMP DP  RH WIND       PRES   REMARKS
BULLHEAD CITY  CLEAR     93  34  12 E6        29.79R
KINGMAN        CLEAR     75  37  25 S9        30.01R
$$

AZZ004>008-015-016-018-170500-
NORTH CENTRAL ARIZONA

CITY           SKY/WX    TMP DP  RH WIND       PRES   REMARKS
GRAND CANYON   CLEAR     56  37  49 CALM      30.25R
WILLIAMS       CLEAR     59  41  51 S7        30.26R
PRESCOTT       CLEAR     68  45  43 S6        30.14R
FLAGSTAFF      CLEAR     58  42  55 SW3       30.29R
PAYSON           N/A     72  36  26 CALM      30.17R
PAGE           CLEAR     81  30  15 S6        30.02R
$$

AZZ009>014-017-170500-
NORTHEAST ARIZONA

CITY           SKY/WX    TMP DP  RH WIND       PRES   REMARKS
WINSLOW        CLEAR     73  38  27 SW10      30.12R
SAINT JOHNS    CLEAR     70  39  32 SW10      30.17R
WINDOW ROCK    CLEAR     62  34  35 CALM      30.25R
SHOW LOW       CLEAR     63  37  39 S8        30.25R
$$

AZZ540-542>544-546-548-170500-
GREATER PHOENIX AREA

CITY           SKY/WX    TMP DP  RH WIND       PRES   REMARKS
PHOENIX        CLEAR     97  45  16 NW7       29.81R
BUCKEYE        CLEAR     90  37  15 SW3       29.82R
LUKE AFB       CLEAR     91  54  27 CALM      29.81R
DEER VALLEY    CLEAR     90  44  20 N5        29.85R
SCOTTSDALE     CLEAR     92  42  17 CALM      29.86R
MESA-GATEWAY   CLEAR     90  45  20 CALM      29.85R
CHANDLER       CLEAR     93  41  16 CALM      29.83R
$$

AZZ539-553-170500-
SOUTHWEST MARICOPA COUNTY AND PINAL COUNTY

CITY           SKY/WX    TMP DP  RH WIND       PRES   REMARKS
CASA GRANDE    CLEAR     87  47  24 SW6       29.87R
GILA BEND      CLEAR     89  23   9 SW9       29.80R
$$

AZZ503-504-507>509-170500-
SOUTHEAST ARIZONA

CITY           SKY/WX    TMP DP  RH WIND       PRES   REMARKS
TUCSON         NOT AVBL
DAVIS-MONTHAN  CLEAR     83  48  29 SW7       29.97R
NOGALES        CLEAR     73  50  44 E9        30.08R
SIERRA VISTA   CLEAR     76  43  31 SW13      30.14R
DOUGLAS        CLEAR     73  53  49 S6        30.10R
SAFFORD        CLEAR     83  43  24 NW9       29.98R
$$

AZZ532-170500-
SOUTHWEST ARIZONA

CITY           SKY/WX    TMP DP  RH WIND       PRES   REMARKS
YUMA           CLEAR     93  42  17 S9        29.77R
$$

CAZ041-043-047-048-061-525>527-560>570-170500-
SOUTHERN CALIFORNIA

CITY           SKY/WX    TMP DP  RH WIND       PRES   REMARKS
DOWNTOWN L.A.  CLEAR     69  60  73 CALM      29.94R
L.A. AIRPORT   CLEAR     68  62  81 W9        29.95R
SAN DIEGO      PTCLDY    68  60  75 NW9       29.97R
BURBANK        CLEAR     69  57  65 S6        29.95R
ONTARIO        CLEAR     71  59  65 SW10      29.94R
RIVERSIDE      CLEAR     70  60  70 W10       29.95R
PALM SPRINGS   CLEAR     89  52  28 NW20G28   29.80R
EL CENTRO NAS  CLEAR     90  47  22 W16       29.78R
IMPERIAL       CLEAR     88  53  30 W13       29.75R
BLYTHE         CLEAR     93  32  11 SW6       29.77R
NEEDLES        CLEAR     95  34  11 W8        29.80R
$$

NVZ020-UTZ003-170500-
SOUTHERN NEVADA-UTAH

CITY           SKY/WX    TMP DP  RH WIND       PRES   REMARKS
LAS VEGAS      PTCLDY    92  38  15 S6        29.89R
SALT LAKE CITY MOCLDY    79  41  25 SE5       30.03R
$$

NMZ009-TXZ055-170500-
NEW MEXICO-WEST TEXAS

CITY           SKY/WX    TMP DP  RH WIND       PRES   REMARKS
ALBUQUERQUE    PTCLDY    77  39  25 S12       30.12R
EL PASO        PTCLDY    84  52  33 S3        30.04R
$$


........................KEY........................
SKY/WX - SKY CONDITION/WEATHER
TMP    - TEMPERATURE IN FAHRENHEIT
DP     - DEW POINT IN FAHRENHEIT
RH     - RELATIVE HUMIDITY IN PERCENT
WIND   - DIRECTION AND SPEED IN MILES PER HOUR (MPH)
VRB    - VARIABLE WIND DIRECTION
PRES   - MEAN SEA LEVEL PRESSURE IN INCHES OF MERCURY
         F - FALLING PRESSURE   R - RISING PRESSURE
         S - STEADY PRESSURE
VSB    - VISIBILITY IN MILES
HX     - HEAT INDEX IN FAHRENHEIT
WCI    - WIND CHILL INDEX IN FAHRENHEIT
TC     - TEMPERATURE IN CELSIUS WHICH IS ALSO KNOWN AS
         TEMPERATURE IN CENTIGRADE
AFB    - AIR FORCE BASE
         LUKE AFB IS LUKE AIR FORCE BASE
         DAVIS-MONTHAN IS DAVIS-MONTHAN AIR FORCE BASE
NAS    - NAVAL AIR STATION
         EL CENTRO NAS IS EL CENTRO NAVAL AIR STATION
N/A    - NOT AVAILABLE





USA.gov is the U.S. government's official web portal to all federal, state and local government web resources and services.